{"data":{"norad_id":66039,"epoch":"2026-05-25T02:53:13.066368Z","epoch_age_seconds":64241,"freshness":"FRESH","line1":"1 66039U 25233G   26145.12029012  .00000135  00000+0  19002-3 0  9997","line2":"2 66039  89.0024  45.5168 0002116  69.2449 290.8928 13.51006447 30071","mean_motion":13.51006447,"eccentricity":0.0002116,"inclination_deg":89.0024,"raan_deg":45.5168,"arg_perigee_deg":69.2449,"mean_anomaly_deg":290.8928,"bstar":0.00019002,"rev_number":3007,"period_min":106.58720416898,"perigee_km":1066.9821741027,"apogee_km":1070.1336153822,"semimajor_km":7446.6948947424,"source":"CELESTRAK","updated_at":"2026-05-25T13:38:05.920444Z"}}